Location: Martley
(52.2333°N, 2.3667°W)
Time: 05:16:40
(UTC+00:00)

Daily predictions for brighter satellites

Satellite Brightness Start Highest point End
(mag) Time Altitude Azimuth Time Altitude Azimuth Time Altitude Azimuth
ATLAS 5 CENTAUR R/B 4.1 04:06:10 20° NE 04:06:10 20° NE 04:07:44 10° NE
USA 234 4.3 04:04:05 10° ENE 04:10:06 38° SE 04:11:21 35° SSE
CZ-4C R/B 3.7 04:21:29 40° S 04:21:29 40° S 04:26:40 10° SSE
Cosmos 1607 4.5 04:27:06 49° NNE 04:27:06 49° NNE 04:31:35 10° NE
ATLAS CENTAUR R/B 3.9 04:30:13 17° NE 04:30:13 17° NE 04:31:54 10° ENE
Nadezhda 4 Rocket 4.4 04:31:50 54° SSE 04:31:50 54° SSE 04:36:29 10° SSE
COSMO-SKYMED 1 4.3 04:27:37 10° SE 04:30:16 30° ESE 04:30:16 30° ESE
Cosmos 2263 Rocket 3.6 04:42:48 10° S 04:47:51 36° ESE 04:52:54 10° NE
Cosmos 2026 Rocket 4.5 04:45:53 10° N 04:51:58 58° ENE 04:58:06 10° SSE
Meteor 2-11 Rocket 4.3 04:52:28 55° SSW 04:53:58 88° W 05:00:10 10° N
Cosmos 1484 Rocket 3.9 04:57:28 10° NNE 05:05:50 - S 05:01:00 44° E
Meteor 1-18 Rocket 4.4 05:02:42 25° N 05:05:59 68° ENE 05:11:32 10° SSE
GEOS 3 Rocket 3.9 05:01:16 10° SSE 05:05:27 52° SSW 05:05:27 52° SSW
Cosmos 2297 Rocket 3.5 05:08:47 27° N 05:08:47 27° N 05:12:01 10° NNE
Cosmos 1624 Rocket 3.9 05:07:09 78° NNW 05:07:09 78° NNW 05:12:18 10° NNE
Cosmos 724 4.2 05:09:21 59° SW 05:10:35 87° NW 05:16:33 10° NE
Cosmos 2227 Rocket 3.4 05:13:12 28° N 05:13:12 28° N 05:16:38 10° NNE
Cosmos 2056 Rocket 3.4 05:13:08 70° NNW 05:13:08 70° NNW 05:17:53 10° NNE
PSLV R/B 4.5 05:09:20 10° NNE 05:13:24 58° E 05:17:28 10° S
CZ-2C R/B 4.1 05:09:53 10° N 05:11:15 19° N 05:11:15 19° N
Cosmos 1634 Rocket 4.3 05:10:30 10° S 05:16:37 65° E 05:22:44 10° NNE
Geosat 3.9 05:12:51 10° SSE 05:17:51 68° WSW 05:17:52 68° WSW
SKYMED 2 3.7 05:15:18 10° SSE 05:18:56 62° S 05:18:56 62° S
Cosmos 2034 Rocket 4.0 05:16:29 23° SSW 05:20:27 61° WNW 05:26:48 10° N
ALOS 3.2 05:16:17 10° NNE 05:20:50 48° E 05:25:21 10° S
Cosmos 1627 Rocket 4.4 05:16:03 10° N 05:22:19 87° W 05:28:38 10° S
Okean 1-7 3.4 05:24:46 50° SSW 05:24:46 50° SSW 05:28:07 10° S
Cosmos 2195 Rocket 4.4 05:23:05 10° NNW 05:29:26 74° W 05:35:43 10° S
Cosmos 1943 3.2 05:29:14 52° W 05:29:36 53° WSW 05:35:02 10° S
Cosmos 1420 Rocket 4.0 05:25:07 10° SSW 05:30:19 80° ESE 05:35:32 10° NNE
Cosmos 1092 Rocket 4.0 05:34:23 21° NNW 05:38:28 54° W 05:44:23 10° SSW
Cosmos 2082 Rocket 4.3 05:36:29 11° NNW 05:40:00 18° NNE 05:43:44 10° ENE
Cosmos 1741 Rocket 3.9 05:39:27 39° NW 05:41:21 71° WSW 05:46:32 10° SSE
Meteor 1-25 Rocket 4.1 05:36:51 10° SSW 05:42:28 79° WNW 05:48:14 10° NNE
Cosmos 1346 Rocket 3.4 05:39:34 10° S 05:43:21 55° E 05:47:11 10° NNE
ADEOS Rocket 3.9 05:41:09 10° SE 05:47:39 51° ENE 05:53:32 10° N
ATLAS 5 CENTAUR R/B 2.7 05:47:42 30° NNW 05:48:03 30° NNW 05:52:42 10° NE
Meteor 1-14 Rocket 4.4 05:44:03 10° S 05:50:01 87° E 05:56:03 10° NNE
USA 234 3.2 05:47:03 10° ENE 05:53:38 88° SSE 05:58:43 18° WSW
Cosmos 1452 Rocket 3.4 05:53:54 10° SSW 05:59:11 79° WNW 06:04:32 10° NNE
USA 116 4.3 05:56:10 10° S 06:00:40 55° W 06:04:23 18° NNW
Cosmos 1850 Rocket 4.2 05:58:34 31° NW 06:00:49 50° WSW 06:05:57 10° S
Meteor 1-19 Rocket 4.1 05:56:40 13° NNW 06:01:32 62° W 06:07:03 10° S
DMSP B5D1-3 4.4 05:58:27 10° S 06:03:35 70° WSW 06:08:44 10° NNW
Meteor 2-4 Rocket 3.6 05:58:10 10° NNW 06:03:46 88° WSW 06:09:10 10° S
Cosmos 1340 2.5 06:01:38 10° SSW 06:05:23 78° WNW 06:09:11 10° N
SJ-12 3.9 06:01:43 10° N 06:05:46 56° WNW 06:09:47 10° SSW
CZ-4C R/B 4.4 06:06:43 16° WSW 06:06:43 16° WSW 06:10:52 10° SW
NOAA 6 4.1 06:02:25 10° NNE 06:07:35 83° ESE 06:12:43 10° SSW
COSMO-SKYMED 1 3.4 06:04:03 10° SSW 06:07:28 29° WSW 06:07:28 29° WSW
Cosmos 1515 3.5 06:05:58 23° NNW 06:08:14 70° W 06:12:02 10° S
Cosmos 2221 Rocket 3.6 06:05:20 19° NNW 06:08:19 58° W 06:12:38 10° S
ATLAS CENTAUR R/B 2.2 06:06:25 22° NNW 06:08:48 45° NE 06:12:43 10° ESE
Meteor 2-13 Rocket 4.4 06:02:53 10° NNW 06:09:04 82° W 06:15:13 10° S
SOZ 4.3 06:09:58 43° SSW 06:10:00 43° SSW 06:11:58 10° SE
Cosmos 1500 4.2 06:07:03 10° S 06:10:45 49° E 06:14:27 10° NNE
Okean 3 3.3 06:08:47 16° NNW 06:12:01 66° W 06:16:10 10° S
Okean O Rocket 1.5 06:15:28 10° NNE 06:19:51 72° WNW 06:24:15 10° SSW
Okean 1 4.4 06:21:09 25° W 06:21:09 25° W 06:24:07 10° SW
CZ-4 R/B 4.5 06:18:37 10° NE 06:20:51 15° E 06:23:05 10° SE
Cosmos 2266 Rocket 4.0 06:14:49 10° N 06:21:08 84° E 06:27:16 10° S
Cosmos 405 2.9 06:20:38 14° NNW 06:23:41 86° WSW 06:27:12 10° S
Cosmos 2180 Rocket 4.4 06:18:22 10° S 06:24:30 84° W 06:30:44 10° N
Cosmos 1602 4.2 06:21:48 10° SW 06:25:22 37° WNW 06:28:59 10° N
Cosmos 1733 Rocket 3.1 06:21:54 10° S 06:26:13 82° E 06:30:34 10° NNE
Timation 1 Rocket 4.3 06:20:49 10° SW 06:26:45 66° NW 06:32:45 10° NNE
CZ-4B DEB 4.3 06:25:23 10° N 06:30:43 51° WNW 06:36:04 10° SW
Cosmos 2263 Rocket 2.3 06:26:14 10° SW 06:31:39 50° NW 06:37:05 10° NNE
CZ-2C R/B 4.0 06:28:32 10° SSE 06:33:15 75° ENE 06:38:04 10° NNW
Cosmos 332 Rocket 4.3 06:29:17 10° SSW 06:34:09 66° ESE 06:39:01 10° NNE
Cosmos 1484 Rocket 4.0 06:32:23 10° NNW 06:35:28 22° WNW 06:36:20 20° W
Cosmos 1869 Rocket 4.3 06:33:06 10° SW 06:36:57 30° WNW 06:40:49 10° N
Okean-O 4.1 06:34:42 10° NNE 06:38:55 41° E 06:43:07 10° S
Meteor 1-13 Rocket 4.2 06:38:15 10° NNW 06:43:40 59° W 06:49:08 10° S
BREEZE-M DEB (TANK) 3.1 06:37:16 10° WSW 06:43:49 60° S 06:46:25 10° E
Cosmos 1833 Rocket 3.7 06:41:13 10° NNW 06:46:35 42° NE 06:51:56 10° ESE
Cosmos 1331 Rocket 4.0 06:41:37 10° SSW 06:46:47 90° ESE 06:52:01 10° NNE
FENGYUN 3A 4.0 06:42:35 10° N 06:47:37 41° WNW 06:52:37 10° SW
SMAP 3.1 06:43:39 10° NNE 06:48:21 85° ESE 06:53:02 10° SSW
COSMOS 2406 3.5 06:44:40 10° NNW 06:50:24 72° ENE 06:56:04 10° SE
Cosmos 1975 Rocket 4.0 06:47:16 10° N 06:51:37 51° ENE 06:55:58 10° SSE
Cosmos 1674 Rocket 3.7 06:47:26 10° NNW 06:51:40 51° W 06:55:51 10° S
CZ-2C R/B 4.2 06:50:18 10° NNW 06:50:38 11° NW 06:50:38 11° NW
Cosmos 1536 2.9 06:47:48 10° S 06:51:53 87° E 06:55:59 10° NNE
Helios 1A Rocket 3.4 06:48:21 10° N 06:52:06 37° WNW 06:55:48 10° SW
Cosmos 2279 Rocket 4.2 06:46:45 10° SW 06:52:42 47° WNW 06:58:42 10° N
Cosmos 2297 Rocket 4.0 06:50:37 12° NW 06:52:47 14° NNW 06:55:40 10° NNE
Cosmos 1666 3.2 06:51:17 10° S 06:55:04 64° E 06:58:51 10° NNE
Cosmos 371 Rocket 3.2 06:50:41 10° SSW 06:55:31 72° WNW 07:00:26 10° NNE
USA 238 DEB 4.5 06:49:47 10° SSW 06:56:19 57° SE 07:03:06 10° NE
USA 238 4.5 06:49:55 10° SSW 06:56:26 57° SE 07:03:11 10° NE
Cosmos 2227 Rocket 4.0 06:55:02 11° NW 06:57:24 14° NNW 07:00:18 10° NNE
Meteor 2-19 Rocket 4.5 06:51:43 10° NNW 06:57:56 88° W 07:04:06 10° S
ALOS 3.1 06:54:06 10° N 06:58:03 28° WNW 07:01:59 10° WSW
CZ-4B R/B 3.5 06:53:02 10° N 06:58:21 47° WNW 07:03:43 10° SW
Cosmos 44 3.1 06:53:47 10° SW 06:58:29 79° NW 07:02:58 10° NE
IRIDIUM 104 4.3 06:53:24 10° N 06:58:37 70° W 07:03:47 10° S
Radarsat Rocket 4.1 06:52:40 10° NNE 06:58:45 71° WNW 07:05:30 10° SSW
Cosmos 1110 Rocket 3.9 06:54:38 10° SW 06:59:48 68° WNW 07:04:59 10° NNE
AQUARIUS 4.1 06:56:17 10° NNE 07:00:49 80° WNW 07:05:18 10° SSW
Cosmos 1844 4.2 06:55:35 10° SSW 07:01:20 67° ESE 07:07:04 10° NE
Okean 2 4.4 06:58:57 10° N 07:02:56 46° ENE 07:06:52 10° SSE
Cosmos 1844 Rocket 2.8 06:58:35 10° SSW 07:04:10 83° ESE 07:09:47 10° NNE
IRIDIUM 114 4.4 07:02:34 10° N 07:07:42 59° W 07:12:49 10° SSW
USA 81 4.1 07:02:37 10° NNW 07:07:51 64° W 07:13:03 10° S
Meteor 1-23 Rocket 4.3 07:02:48 10° NNW 07:08:35 67° W 07:14:17 10° S
Cosmos 1378 Rocket 3.9 07:06:16 10° NNW 07:10:30 46° W 07:14:44 10° SSW
Cosmos 1486 Rocket 4.1 07:06:09 10° NNW 07:11:27 67° WSW 07:16:39 10° SSE
NOAA 12 4.2 07:06:23 10° NNE 07:11:40 82° ESE 07:16:54 10° SSW
Meteor 1-4 Rocket 4.5 07:08:47 10° N 07:12:09 30° ENE 07:15:27 10° SE
H-2A R/B 2.9 07:08:46 10° N 07:12:22 47° WNW 07:16:00 10° SW
Meteor 1-11 Rocket 3.9 07:10:07 10° SSW 07:15:50 61° WNW 07:21:43 10° N
Cosmos 1346 Rocket 4.2 07:17:27 10° WSW 07:20:06 17° WNW 07:22:45 10° NNW
SAR-Lupe-2 3.9 07:16:46 10° S 07:20:14 47° W 07:23:45 10° NNW
Cosmos 1743 3.5 07:18:45 10° S 07:22:28 56° E 07:26:15 10° NNE
Nadezhda 2 Rocket 4.5 07:16:36 10° NNW 07:22:44 73° W 07:28:47 10° S
Cosmos 2082 Rocket 2.9 07:19:55 10° NNW 07:25:27 52° NE 07:30:56 10° SE
Envisat 3.0 07:21:54 10° NNE 07:27:02 83° WNW 07:32:07 10° SSW
CZ-2C R/B 3.0 07:26:08 10° SSE 07:31:22 67° ENE 07:36:33 10° N
ADEOS Rocket 3.7 07:27:02 10° SSW 07:33:20 38° W 07:39:06 10° NNW
